Regional Weather Roundup
Issued by NWS

Home | Current Version | Previous Version | Text Only | Print | Product List | Glossary Off
Versions: 1 2 3 4 5 6 7 8 9 10 11 12 13 14 15 16 17 18 19 20 21 22 23 24 25 26 27 28 29 30 31 32 33 34 35 36 37 38 39 40 41 42 43 44 45 46 47 48 49 50

875
ASUS45 KCYS 230310
RWRWY

WYOMING REGIONAL WEATHER ROUNDUP
NATIONAL WEATHER SERVICE CHEYENNE WY
800 PM MST SUN JAN 22 2017

NOTE:  "FAIR" INDICATES FEW OR NO CLOUDS BELOW 12,000 FEET
WITH NO SIGNIFICANT WEATHER AND/OR OBSTRUCTIONS TO VISIBILITY.

WYZ001-230400-
YELLOWSTONE NATIONAL PARK

CITY           SKY/WX    TMP DP  RH WIND       PRES   REMARKS
LK YELLOWSTONE   N/A     19  17  92 CALM      29.70S
W YELLOWSTONE  NOT AVBL

$$
WYZ002>013-054>058-071-098>099-230400-
NORTHERN WYOMING

CITY           SKY/WX    TMP DP  RH WIND       PRES   REMARKS
JACKSON        LGT SNOW  21  21 100 SW17      29.73F WCI   7
CODY           FAIR      23  16  74 S3        29.71R
GREYBULL       FAIR      12   8  84 VRB3      29.72F
WORLAND        FAIR      20  15  81 SW5       29.72F WCI  13
SHERIDAN       FAIR      21  17  84 VRB6      29.72F WCI  13
BUFFALO        FAIR      24  13  62 CALM      29.70F
GILLETTE       FAIR      31  19  61 S17       29.73F WCI  19
HULETT         FAIR      23  18  80 MISG      29.78F
NEWCASTLE      FAIR      28  19  69 SE8       29.82F WCI  20

$$
WYZ014>020-022>026-101>103-230400-
CENTRAL WYOMING

CITY           SKY/WX    TMP DP  RH WIND       PRES   REMARKS
BIG PINEY      LGT SNOW  15  13  91 NW8       29.78F FOG     WCI   4
PINEDALE       LGT SNOW  18  18 100 CALM      29.78F VSB 1
DUBOIS         NOT AVBL
LANDER         CLOUDY    20  14  77 NW6       29.70F WCI  12
RIVERTON       MOCLDY    18  12  77 NW9       29.73S WCI   7
CASPER         FAIR      31  17  56 SW30G39   29.74F WCI  16
DOUGLAS        CLOUDY    31  14  49 SE7       29.78F WCI  24

$$
WYZ021-027>030-104>119-230400-
SOUTHERN WYOMING

CITY           SKY/WX    TMP DP  RH WIND       PRES   REMARKS
EVANSTON       LGT SNOW  20  16  84 E8        29.72F FOG     WCI  10
ROCK SPRINGS   CLOUDY    27  17  66 S18       29.75F WCI  14
RAWLINS        CLOUDY    26  18  71 S7G21     29.79F WCI  18
LARAMIE        FAIR      21   8  57 S9        29.79F WCI  11
CHEYENNE       FAIR      26  12  55 SW7       29.84F WCI  18
TORRINGTON     FAIR      27  16  63 N7        29.82F WCI  19

$$




USA.gov is the U.S. government's official web portal to all federal, state and local government web resources and services.